Location: Poughquag
(41.6090°N, 73.6820°W)
Time: 12:52:19
(UTC-04:00)

A-11 Canister half - Pass Details

Date: 06 June 2020
Orbit: 1527 x 1682 km, 47.3° (Epoch: 06 July)

Event Time Altitude Azimuth Distance (km) Brightness Sun altitude
Rises 08:22:01 0° 265° (W) 4,675 11.0 31.1°
Reaches altitude 10° 08:25:06 10° 268° (W) 3,693 10.6 31.7°
Maximum altitude 08:34:21 65° 350° (N) 1,665 9.7 33.4°
Drops below altitude 10° 08:43:46 10° 72° (ENE) 3,758 12.3 35.1°
Sets 08:46:56 0° 76° (ENE) 4,762 12.5 35.7°
